Location: Ahausen
(50.4985°N, 8.2722°E)
Time: 21:39:01
(UTC+00:00)

M-CUBED/EXP-1 PRIME - Visible Passes

Search period start: 27 June 2022 00:00
Search period end: 07 July 2022 00:00
Orbit: 423 x 634 km, 101.7° (Epoch: 27 June)

Date Brightness Start Highest point End Pass type
(mag) Time Alt. Az. Time Alt. Az. Time Alt. Az.
27 Jun ? 00:55:29 25° SW 00:56:25 29° WSW 00:59:20 10° NW visible
27 Jun ? 23:09:35 10° E 23:11:43 17° NE 23:13:55 10° NNE visible
28 Jun ? 00:44:15 30° SSW 00:45:20 42° WSW 00:48:31 10° NNW visible
28 Jun ? 22:59:17 10° E 23:00:50 13° NE 23:02:26 10° NNE visible
29 Jun ? 00:33:01 33° S 00:34:17 62° WSW 00:37:36 10° NNW visible
30 Jun ? 00:21:46 30° SSE 00:23:14 89° ENE 00:26:37 10° NNW visible
01 Jul ? 00:10:30 25° SE 00:12:12 61° ENE 00:15:33 10° NNW visible
01 Jul ? 01:45:45 10° WSW 01:46:33 11° W 01:47:21 10° W visible
01 Jul ? 23:59:13 19° SE 00:01:11 42° ENE 00:04:26 10° N visible
02 Jul ? 01:34:28 14° WSW 01:35:21 15° W 01:37:22 10° WNW visible
02 Jul ? 23:47:56 15° ESE 23:50:11 31° ENE 23:53:15 10° N visible
03 Jul ? 01:23:11 18° SW 01:24:10 21° W 01:26:48 10° NW visible
03 Jul ? 23:36:38 11° ESE 23:39:11 23° ENE 23:42:00 10° N visible
04 Jul ? 01:11:53 23° SW 01:12:59 29° WSW 01:16:01 10° NW visible
04 Jul ? 23:25:52 10° E 23:28:13 18° NE 23:30:39 10° N visible
05 Jul ? 01:00:33 28° SSW 01:01:49 41° WSW 01:05:07 10° NNW visible
05 Jul ? 23:15:24 10° E 23:17:15 14° NE 23:19:10 10° NNE visible
06 Jul ? 00:49:14 30° S 00:50:40 61° WSW 00:54:08 10° NNW visible
06 Jul ? 23:05:16 10° ENE 23:06:17 11° NE 23:07:19 10° NNE visible
